Location: Rayville (historical)
(39.9992°N, 99.6815°W)
Time: 00:10:56
(UTC+00:00)

Lacrosse 5 rocket - Pass Details

Date: 18 February 2020
Orbit: 460 x 636 km, 57.0° (Epoch: 09 April)

Event Time Altitude Azimuth Distance (km) Brightness Sun altitude
Rises 01:55:18 0° 284° (WNW) 2,835 6.4 -19.5°
Reaches altitude 10° 01:58:43 10° 312° (NW) 1,970 4.8 -20.2°
Maximum altitude 02:00:53 13° 341° (NNW) 1,785 4.1 -20.6°
Drops below altitude 10° 02:03:05 10° 10° (N) 2,005 4.1 -21.0°
Enters shadow 02:03:40 - 16° (NNE) 2,123 4.2 -21.1°
